Fairfield, NJ

6:17 PM EST on December 06, 2016 (GMT -0500)
Essex County

Weather History for KCDW - March, 2013

Change the Weather History Date:

Wednesday, March 27, 2013

  Actual Average Record
Temperature  
Mean Temperature 40 °F -  
Max Temperature 52 °F 53 °F 82 °F (1998)
Min Temperature 30 °F 30 °F 16 °F (1979)
Degree Days  
Heating Degree Days 24    
Moisture  
Dew Point 23 °F    
Average Humidity 51    
Maximum Humidity 75    
Minimum Humidity 28    
Precipitation  
Precipitation 0.00 in - - ()
Sea Level Pressure  
Sea Level Pressure 29.94 in    
Wind  
Wind Speed 5 mph (NW)    
Max Wind Speed 16 mph    
Max Gust Speed 25 mph    
Visibility 10 miles    
Events      
Averages and records for this station are not official NWS values.
T = Trace of Precipitation, MM = Missing Value Source: NWS Daily Summary

Daily Weather History Graph

Daily Weather History Graph

Search for Another Location

Airport or City:

Trip Planner

Search our weather history database for the weather conditions in past years. The results will help you decide how hot, cold, wet, or windy it might be!

Date:

Astronomy

Mar. 27, 2013 Rise Set
Actual Time 6:48 AM EDT 7:16 PM EDT
Civil Twilight 6:20 AM EDT 7:44 PM EDT
Nautical Twilight 5:48 AM EDT 8:16 PM EDT
Astronomical Twilight 5:15 AM EDT 8:50 PM EDT
Moon 7:58 PM EDT (3/27) 6:37 AM EDT (3/27)
Length of Visible Light 13h 23m
Length of Day
12h 28m
Full, 100% of the Moon is Illuminated
Mar 27
Full
Apr 3
Last Quarter
Apr 10
New
Apr 18
First Quarter
Apr 25
Full

Hourly Weather History & Observations

Time (EDT) Temp. Windchill Dew Point Humidity Pressure Visibility Wind Dir Wind Speed Gust Speed Precip Events Conditions
12:53 AM 34.0 °F - 25.0 °F 70% 29.91 in 10.0 mi Calm Calm - N/A   Clear
1:53 AM 32.0 °F - 25.0 °F 75% 29.91 in 10.0 mi Calm Calm - N/A   Clear
2:53 AM 37.0 °F 33.3 °F 21.0 °F 52% 29.91 in 10.0 mi NW 4.6 mph - N/A   Clear
3:53 AM 36.0 °F 32.1 °F 19.0 °F 50% 29.89 in 10.0 mi NNW 4.6 mph - N/A   Clear
4:53 AM 35.1 °F - 19.9 °F 54% 29.91 in 10.0 mi Calm Calm - N/A   Clear
5:53 AM 33.1 °F 28.7 °F 21.0 °F 61% 29.92 in 10.0 mi NW 4.6 mph - N/A   Clear
6:53 AM 30.0 °F - 21.9 °F 72% 29.93 in 10.0 mi Calm Calm - N/A   Clear
7:53 AM 35.1 °F - 24.1 °F 64% 29.94 in 10.0 mi Calm Calm - N/A   Clear
8:53 AM 41.0 °F 35.2 °F 26.1 °F 55% 29.95 in 10.0 mi NW 9.2 mph - N/A   Clear
9:53 AM 43.0 °F 36.4 °F 26.1 °F 51% 29.95 in 10.0 mi NNW 12.7 mph 19.6 mph N/A   Clear
10:53 AM 45.0 °F 40.1 °F 25.0 °F 46% 29.94 in 10.0 mi NNW 9.2 mph 17.3 mph N/A   Clear
11:53 AM 48.0 °F - 24.1 °F 39% 29.93 in 10.0 mi NNW 8.1 mph 17.3 mph N/A   Clear
12:53 PM 48.0 °F - 19.9 °F 33% 29.92 in 10.0 mi NW 9.2 mph - N/A   Overcast
1:53 PM 50.0 °F - 19.0 °F 29% 29.91 in 10.0 mi WNW 5.8 mph - N/A   Mostly Cloudy
2:53 PM 50.0 °F - 18.0 °F 28% 29.90 in 10.0 mi NW 9.2 mph 19.6 mph N/A   Overcast
3:53 PM 51.1 °F - 19.9 °F 29% 29.90 in 10.0 mi NW 15.0 mph 24.2 mph N/A   Overcast
4:53 PM 50.0 °F - 19.0 °F 29% 29.91 in 10.0 mi NNW 16.1 mph 25.3 mph N/A   Scattered Clouds
5:53 PM 50.0 °F - 21.9 °F 33% 29.91 in 10.0 mi WNW 12.7 mph 25.3 mph N/A   Clear
6:53 PM 48.9 °F - 21.9 °F 35% 29.93 in 10.0 mi NW 10.4 mph - N/A   Clear
7:53 PM 42.1 °F - 33.1 °F 70% 29.98 in 10.0 mi Calm Calm - 0.00 in   Overcast
8:53 PM 43.0 °F 39.5 °F 27.0 °F 53% 29.99 in 10.0 mi WNW 5.8 mph - N/A   Clear
9:53 PM 42.1 °F 37.1 °F 28.0 °F 58% 30.01 in 10.0 mi NW 8.1 mph - N/A   Clear
10:53 PM 39.9 °F 36.7 °F 28.0 °F 63% 30.01 in 10.0 mi Variable 4.6 mph - N/A   Clear
11:53 PM 39.0 °F 35.7 °F 28.0 °F 65% 30.02 in 10.0 mi NNW 4.6 mph - N/A   Clear